Lapse_Rate
6.5 6.5 6.5 6.5 6.5 6.5 6.5 6.5 6.5 6.5 6.5 6.5 6.5 6.5 6.2 6.0 6.2 6.8 6.5 6.7 6.3 6.3 6.5 6.9 6.8 6.8 7.1 7.1 7.1 7.3 7.0 6.6 6.0 6.1 5.7 5.0 4.7 3.8 3.3 3.8 4.2 4.6 4.3 4.4
6.5 6.5 6.5 6.5 6.5 6.5 6.5 6.5 6.5 6.5 6.5 6.4 6.2 6.1 6.4 6.1 6.6 6.8 6.7 6.8 6.7 6.7 7.1 7.6 7.7 7.8 7.9 7.0 7.3 7.1 6.8 6.7 6.7 5.8 5.6 4.9 4.7 3.6 2.9 2.7 2.5 2.7 2.9 3.7
6.5 6.5 6.5 6.5 6.5 6.5 6.5 6.5 6.5 6.5 6.5 6.2 6.4 6.6 6.6 6.7 6.8 6.9 6.9 7.2 7.2 7.4 7.7 7.8 7.6 8.1 7.3 7.2 7.4 7.2 6.7 7.0 6.9 5.5 5.4 4.9 5.1 4.3 3.3 2.7 2.1 2.1 2.2 2.3
6.5 6.5 6.5 6.5 6.5 6.5 6.5 6.5 6.5 6.5 6.5 6.3 6.3 6.5 7.0 6.5 6.7 6.9 7.2 7.5 7.7 7.7 7.8 7.8 7.8 7.8 7.9 7.9 7.6 7.3 6.8 7.2 7.1 5.6 5.2 4.8 5.4 4.9 3.9 3.1 2.6 2.3 2.3 2.4
6.5 6.5 6.5 6.5 6.5 6.5 6.5 6.5 6.5 6.5 6.4 6.5 6.7 6.5 6.4 6.7 5.9 6.6 7.5 7.8 7.9 7.9 8.1 8.1 8.1 8.2 8.1 8.0 7.7 7.3 7.5 7.3 6.9 5.5 5.0 4.6 5.3 5.0 4.5 3.6 3.2 3.0 3.1 2.9
6.5 6.5 6.5 6.5 6.5 6.7 6.5 6.5 6.7 6.8 6.6 6.6 6.7 6.5 6.5 7.2 7.6 7.9 7.9 8.0 8.1 8.2 8.4 8.3 8.3 8.3 8.2 8.0 7.8 7.5 7.6 7.4 7.2 5.8 5.0 4.6 5.1 4.9 4.5 4.0 3.9 3.8 3.5 3.5
6.5 6.5 6.5 6.5 6.6 6.9 6.5 6.5 6.6 7.0 6.9 6.9 6.5 6.3 7.1 7.7 8.0 8.1 8.2 8.2 8.5 8.4 8.3 8.4 8.5 8.5 8.1 8.1 7.9 8.1 8.0 7.7 7.4 6.0 4.8 4.5 4.8 5.0 4.5 4.0 3.4 3.0 3.3 3.8
6.5 6.5 6.5 6.4 6.6 6.5 6.7 6.9 6.9 6.9 7.1 7.2 7.3 7.5 7.7 8.0 7.9 8.1 8.1 8.3 8.5 8.4 8.3 8.5 8.7 8.5 8.3 8.1 8.3 8.3 8.0 7.6 7.7 6.3 4.5 4.3 4.8 5.0 3.9 3.3 2.9 3.0 3.4 3.9
6.5 6.5 6.4 7.1 6.5 7.0 7.3 6.9 6.9 6.9 7.3 7.5 7.5 7.5 7.8 7.8 8.0 8.1 8.2 8.4 8.6 8.4 8.4 8.6 8.7 8.8 8.4 8.3 8.6 8.4 7.9 7.5 7.5 5.9 4.3 3.9 5.2 4.8 4.0 3.5 3.2 3.3 3.7 4.1
6.5 6.5 6.5 6.9 6.2 6.9 7.1 7.0 7.2 7.4 7.5 7.7 7.5 7.8 7.7 7.9 8.0 8.1 8.3 8.4 8.6 8.5 8.3 8.3 8.4 8.6 8.6 8.8 8.8 8.3 7.5 6.8 6.8 5.4 4.4 3.8 5.0 4.8 3.9 3.5 3.6 3.7 3.5 3.5
6.5 6.3 6.2 6.5 6.3 6.4 6.6 7.0 7.0 7.1 7.5 7.7 7.7 7.7 7.8 7.9 8.1 8.2 8.3 8.4 8.5 8.5 8.3 8.3 8.4 8.4 8.7 8.8 8.6 8.1 7.5 6.4 6.1 5.2 4.1 3.8 4.3 4.2 3.9 3.8 3.7 3.2 3.2 3.4
6.5 6.5 6.5 6.3 6.3 7.0 6.3 6.4 7.3 7.3 6.6 7.0 8.0 7.8 8.0 7.9 8.2 8.2 8.2 8.0 8.0 8.3 8.2 7.7 7.7 7.6 8.2 8.6 8.4 8.1 7.6 6.6 6.7 5.4 4.0 3.7 3.8 3.7 4.5 4.5 4.3 4.1 3.8 3.7
6.1 6.3 6.1 6.8 7.6 6.2 6.4 7.2 7.1 7.2 7.4 7.5 7.3 8.1 8.1 8.1 8.0 8.4 7.0 7.5 7.6 7.8 7.1 6.8 6.8 7.0 8.2 8.3 8.3 8.0 7.3 6.5 6.8 5.5 3.9 3.9 4.2 4.4 4.5 4.9 4.9 4.5 4.6 4.8
6.0 5.5 6.7 5.9 6.1 6.7 7.1 7.2 7.3 7.1 7.4 7.6 7.8 7.7 7.9 7.6 7.1 6.5 6.6 7.3 7.8 7.0 6.1 6.5 6.4 6.7 8.0 8.5 8.0 7.4 6.6 7.2 6.8 4.5 4.0 4.0 4.3 4.4 4.3 4.1 4.2 5.0 5.5 5.3
7.0 6.7 7.0 7.0 6.9 6.8 6.6 6.4 6.3 6.5 6.9 6.6 6.9 7.2 7.3 7.1 6.9 6.4 6.6 7.4 6.7 5.9 5.9 6.6 6.7 6.6 7.4 8.2 7.8 6.2 5.6 5.2 5.4 4.2 3.7 4.2 4.3 4.4 4.3 4.1 4.2 4.3 5.4 5.7
5.4 6.3 7.0 5.7 6.1 6.0 5.8 5.9 6.7 7.1 7.2 7.0 6.9 6.5 6.4 6.6 6.5 6.2 6.8 6.6 6.0 5.3 6.2 5.7 5.7 5.1 5.7 6.3 6.2 5.3 5.0 6.0 5.8 4.1 3.9 4.2 4.6 4.8 4.8 4.6 4.5 4.8 5.0 4.9
3.8 5.0 4.7 4.9 5.7 5.7 6.3 6.8 7.8 7.8 7.7 6.9 6.9 5.9 5.6 5.6 5.8 5.7 5.5 5.7 5.3 5.2 5.5 5.3 4.3 4.2 4.6 5.6 5.2 4.5 4.9 5.4 5.7 3.9 4.0 4.4 4.8 5.1 4.9 4.8 5.0 5.1 4.7 5.0
6.0 6.1 6.1 5.8 5.4 5.5 5.7 6.7 6.9 6.9 6.3 6.7 6.4 5.7 4.8 5.1 5.5 5.6 5.9 5.2 5.2 5.2 4.7 3.8 3.7 4.2 4.5 5.3 5.3 4.5 4.5 5.0 4.6 4.1 4.2 4.7 4.9 4.9 5.0 5.1 5.2 5.1 5.1 6.2
5.8 5.4 5.1 5.2 4.6 4.3 5.0 5.0 5.5 5.2 5.3 5.8 5.4 4.5 4.6 4.6 4.9 5.4 5.5 5.3 5.9 4.3 3.6 4.2 4.2 3.6 3.8 5.5 5.7 5.1 4.8 4.8 4.2 4.1 4.4 5.3 5.2 5.1 5.2 5.3 5.3 5.2 5.5 5.7
4.7 4.6 4.1 3.7 4.5 4.4 3.7 4.3 3.5 4.1 5.0 5.1 4.7 4.1 3.6 3.3 4.0 4.3 4.7 5.7 6.5 5.6 5.8 4.2 4.0 3.5 3.4 5.3 6.4 5.2 4.5 4.4 4.3 4.4 4.7 5.0 5.3 5.4 5.4 5.3 5.2 5.2 5.2 5.1
3.0 2.2 2.2 2.6 2.7 3.9 3.6 2.2 2.3 3.6 4.6 5.1 4.9 4.5 4.0 3.4 4.0 4.5 4.3 4.5 4.7 5.6 5.5 4.0 3.9 3.7 4.2 4.8 5.1 4.5 4.2 4.4 4.5 4.7 5.0 5.2 5.4 5.4 5.4 5.3 5.2 4.8 4.8 4.7
0.7 -0.1 -0.6 0.3 1.4 1.5 1.8 1.5 2.5 3.4 3.9 4.6 4.6 4.3 3.6 3.3 3.7 4.1 5.4 5.2 4.9 6.7 5.1 3.3 4.1 4.5 4.0 3.6 2.7 4.3 4.3 4.5 4.7 4.8 5.0 5.1 5.4 5.6 5.4 5.3 5.1 4.8 4.6 4.4
-0.4 -0.3 0.5 -0.4 -0.3 -0.0 0.4 1.1 1.8 2.9 3.8 4.1 4.4 3.8 3.6 4.2 4.2 4.1 2.9 3.4 4.4 5.4 3.5 4.3 4.6 4.0 3.0 0.9 1.4 1.9 3.6 5.0 5.0 5.0 5.0 5.0 5.2 5.4 5.3 5.2 4.9 4.5 4.4 4.3
-0.4 -0.7 -0.8 -0.4 -1.4 -1.1 0.5 1.2 1.9 2.6 3.0 3.4 3.2 3.5 3.3 2.8 3.2 4.1 3.4 3.7 4.3 4.1 2.5 4.5 3.9 3.2 1.9 0.0 0.2 1.1 1.1 3.3 5.3 5.2 5.1 5.3 4.9 5.0 4.9 4.7 4.5 4.3 4.3 4.0
0.5 0.9 1.8 1.3 1.8 2.5 1.8 3.1 3.7 3.6 3.6 4.1 3.3 3.1 3.3 3.6 3.4 4.0 3.1 3.1 3.2 3.1 1.6 2.3 3.6 2.3 0.4 0.4 -0.1 0.3 1.2 1.4 3.2 4.2 5.1 4.9 4.9 4.8 4.5 4.3 4.3 4.0 3.9 3.7
2.3 3.2 4.9 3.2 2.8 3.9 2.9 4.8 4.9 4.4 5.1 4.4 4.0 3.3 3.1 3.3 3.0 3.0 3.5 3.3 2.4 2.8 1.6 1.3 1.9 1.9 1.0 0.9 0.5 0.2 0.6 1.4 0.7 1.4 1.8 2.2 2.6 2.8 3.0 3.1 3.3 3.5 3.5 3.4
4.1 7.0 4.8 5.2 5.0 4.1 4.0 5.1 4.6 4.2 4.7 4.8 3.5 2.9 3.1 3.1 3.0 3.1 3.5 2.5 2.4 2.1 1.8 1.6 1.1 2.0 1.5 1.2 0.9 0.9 0.6 0.7 1.9 0.8 0.3 0.0 -0.0 0.2 0.4 0.7 1.0 1.2 1.5 1.9
Wind_Speed
12 13 12 15 15 11 15 17 12 13 13 8 6 6 5 6 8 10 10 10 6 7 8 10 8 9 10 10 12 10 11 12 10 10 12 13 11 10 9 8 3 3 4 5
13 14 11 11 12 12 12 12 16 14 13 5 6 7 8 8 10 12 11 9 12 14 14 13 12 12 13 13 14 8 12 12 11 9 12 13 10 9 7 6 4 4 2 2
5 10 13 7 4 5 1 2 3 4 4 7 7 9 9 12 13 11 11 12 14 14 13 13 13 13 14 15 11 10 12 12 11 8 11 12 10 8 6 5 4 3 2 2
6 9 3 2 4 4 4 5 5 4 6 6 8 9 13 13 8 11 12 14 14 13 14 14 13 14 15 12 11 12 13 12 9 8 11 12 10 7 4 3 2 2 1 1
3 4 10 4 3 3 4 4 9 6 7 8 10 9 10 9 17 16 15 14 13 12 14 15 15 13 13 13 12 13 12 10 9 9 11 12 10 6 3 2 1 1 1 2
1 3 4 2 2 4 4 2 6 7 8 10 12 8 9 16 18 18 17 15 16 16 15 14 13 12 14 14 13 14 10 10 10 9 10 11 9 5 2 0 2 2 5 5
8 5 5 3 4 4 2 0 5 8 9 9 7 7 15 17 17 15 15 17 17 15 14 14 13 13 15 14 13 12 12 10 11 7 8 10 8 2 1 4 5 6 8 7
4 4 6 5 3 2 3 4 6 6 8 11 12 14 15 17 18 18 18 18 17 15 14 14 14 13 14 13 12 12 11 11 12 6 6 6 7 1 4 5 7 6 7 6
4 2 5 3 4 5 5 5 6 7 10 11 13 15 16 17 17 17 17 16 15 14 16 15 13 13 16 15 13 12 12 11 12 6 5 6 4 3 4 4 5 5 5 5
2 1 4 3 7 6 6 5 7 8 10 11 13 15 17 16 16 16 15 16 15 16 17 17 14 14 14 14 13 11 10 10 10 6 6 5 3 4 4 3 4 5 6 6
4 2 5 5 8 6 6 6 7 10 10 11 12 15 15 15 16 15 16 16 15 16 15 17 16 15 13 13 13 11 9 8 9 5 4 3 2 2 3 3 5 5 5 7
2 4 2 3 6 6 7 8 9 10 13 13 10 13 15 15 14 15 17 17 16 17 17 18 17 15 14 12 12 10 9 7 7 4 3 2 2 2 5 9 13 12 12 8
1 4 2 5 3 8 6 8 9 10 10 11 13 12 15 15 14 21 17 17 17 18 18 17 16 13 12 11 11 9 8 8 7 6 2 2 2 3 5 6 14 17 16 16
6 5 1 7 4 7 6 8 10 9 8 10 11 13 14 15 17 16 16 17 17 18 18 17 15 11 11 12 9 7 6 13 7 3 3 3 3 3 4 6 7 7 14 14
5 4 3 4 6 6 6 8 10 10 11 12 12 13 15 17 17 17 17 16 16 16 16 15 14 11 11 11 9 6 6 6 4 3 2 3 3 4 4 5 6 7 8 13
5 5 4 6 6 7 7 9 9 11 11 12 13 15 16 16 16 16 15 15 14 14 16 16 15 16 14 10 10 8 7 13 6 2 2 3 4 5 5 6 7 7 8 9
4 4 6 7 8 8 8 8 9 11 12 13 14 15 16 16 15 15 16 15 15 14 14 13 16 16 16 11 9 6 6 5 5 2 3 3 4 5 5 7 7 7 7 8
3 4 5 5 6 7 9 9 10 11 10 13 13 14 14 14 15 15 15 16 14 14 13 16 17 18 16 10 8 5 5 3 2 3 3 4 4 5 6 7 8 10 9 11
5 5 6 7 6 6 7 8 9 11 11 11 12 13 13 12 13 14 14 14 12 15 16 18 27 21 15 14 12 4 2 2 3 3 3 7 5 5 6 8 9 10 10 8
5 5 6 7 7 7 6 7 8 9 10 11 11 12 13 14 14 14 13 12 10 11 16 16 17 15 16 14 11 4 2 2 3 4 4 5 5 6 7 10 10 9 8 9
4 4 6 6 7 8 6 5 7 9 11 10 10 11 12 12 13 13 13 10 16 18 17 21 14 11 10 13 8 4 3 1 2 4 5 5 7 7 8 9 8 9 8 7
3 4 5 6 5 6 6 6 6 7 8 9 9 10 12 12 13 12 11 9 11 25 13 11 10 20 12 17 8 6 4 1 2 3 4 5 6 8 8 8 9 8 8 8
4 3 4 5 5 6 6 6 6 6 7 7 8 10 10 8 8 9 11 14 11 18 11 10 21 24 22 10 9 9 8 3 2 3 4 5 6 7 8 8 8 8 8 7
3 4 4 5 4 4 5 6 6 5 5 5 4 6 8 8 8 7 9 16 23 20 13 16 19 25 21 9 10 9 9 9 4 3 4 8 6 6 8 9 8 7 7 9
4 4 3 3 4 3 4 6 5 4 6 4 5 6 7 5 4 8 9 9 20 16 11 22 27 26 11 10 10 10 9 9 9 7 5 5 6 7 7 7 8 8 7 6
3 3 3 3 3 2 3 4 4 4 4 6 5 5 6 6 7 8 8 13 10 16 10 11 12 12 11 11 11 11 11 11 11 10 10 9 9 8 8 8 8 7 7 6
3 6 2 3 2 2 3 3 4 4 6 4 4 4 5 6 8 9 12 9 9 10 10 10 10 14 11 11 11 11 10 10 18 10 10 10 9 9 9 8 8 7 9 9
Wind_Direction
271 289 290 274 278 268 254 257 252 275 282 323 46 13 358 2 353 339 327 315 331 357 342 331 324 325 320 325 316 311 317 314 308 314 318 315 315 316 315 313 303 282 247 219
290 274 288 292 273 270 273 281 270 284 289 28 20 14 1 350 330 315 307 2 353 340 330 324 325 321 322 321 309 317 313 309 307 312 318 316 311 312 316 320 329 333 333 243
283 347 317 278 15 357 221 205 56 345 17 13 360 354 335 319 317 326 0 345 333 322 317 318 320 322 319 311 303 321 312 308 306 309 314 314 305 306 317 312 319 325 309 179
280 313 273 126 29 3 346 57 49 0 12 12 351 334 318 305 8 351 339 327 320 316 315 317 318 317 306 308 318 315 308 306 306 311 310 313 303 302 306 304 323 305 294 219
281 314 288 144 34 23 8 71 48 20 349 346 335 322 304 354 350 338 327 320 316 316 314 314 313 309 313 312 315 310 303 305 316 315 309 313 309 299 296 307 317 296 184 152
217 252 267 104 73 343 288 207 27 3 343 342 341 311 305 335 328 323 325 322 317 314 312 312 312 314 309 310 309 303 305 310 307 311 307 308 308 297 288 79 67 91 80 83
225 255 273 43 318 290 276 122 15 353 341 334 313 292 311 317 315 319 315 311 312 315 311 311 314 313 307 303 300 304 307 311 307 304 308 304 304 270 125 93 87 78 77 73
195 238 259 348 266 323 26 355 358 357 326 322 313 311 314 314 315 315 314 317 317 314 311 313 312 307 307 305 304 305 307 308 309 301 310 303 297 133 101 109 101 98 102 97
199 242 127 79 84 89 46 354 344 338 326 323 314 315 315 314 318 316 315 315 316 313 312 312 312 310 304 304 302 306 304 306 310 302 309 297 278 139 122 121 125 120 115 112
30 70 94 44 101 59 35 351 344 334 324 319 316 319 316 315 315 314 317 318 315 314 310 307 304 300 295 299 301 300 301 303 307 298 305 296 259 176 150 145 137 136 128 119
263 340 97 84 63 32 12 352 339 326 322 320 322 314 315 316 315 316 316 315 315 313 309 305 306 303 302 303 303 297 295 298 300 286 293 284 230 195 172 150 150 144 137 138
238 72 5 63 16 27 3 338 335 327 325 325 321 322 321 317 317 319 317 324 318 314 311 306 303 299 299 297 296 291 294 299 298 281 272 254 193 136 165 153 149 142 134 133
72 24 307 289 353 27 337 335 329 327 319 322 328 326 322 318 321 323 319 318 318 314 311 308 304 294 296 294 294 289 288 289 292 270 244 211 187 162 143 153 151 147 142 137
62 351 9 47 332 322 338 334 325 317 320 327 325 325 325 324 320 320 319 318 317 319 314 311 301 294 299 297 284 281 288 298 297 240 230 204 180 168 148 150 147 151 151 145
69 23 293 313 333 341 347 335 336 330 330 330 331 331 331 325 321 319 318 320 320 317 319 327 325 313 313 311 305 297 298 291 269 244 214 191 159 152 144 141 140 132 139 137
341 320 20 2 337 342 342 340 328 325 329 328 331 330 326 322 318 317 320 325 325 322 321 325 324 321 314 302 302 298 292 290 248 215 191 160 155 151 145 142 140 139 138 137
12 350 343 336 336 337 335 325 321 326 327 329 327 325 325 323 322 325 327 327 322 315 322 322 320 317 313 298 288 287 291 289 231 192 168 158 154 149 144 143 141 136 131 137
354 315 325 323 322 329 324 321 325 328 329 322 325 325 325 327 326 325 327 326 323 331 331 329 326 327 323 310 302 271 269 256 183 176 153 149 144 139 139 138 134 132 130 142
8 347 347 340 336 316 324 325 330 330 326 329 329 328 323 322 325 326 330 329 335 334 331 332 331 333 330 323 324 300 247 183 172 159 151 149 140 136 134 134 134 135 137 129
1 356 350 336 331 335 324 332 327 322 328 328 329 331 331 333 330 330 335 332 340 324 328 330 334 332 330 328 351 336 306 222 172 152 147 140 141 137 131 132 132 133 126 124
348 340 330 327 325 329 329 327 323 328 328 332 334 332 329 324 332 333 340 342 340 335 341 335 336 334 331 337 336 326 316 257 162 153 148 142 139 135 134 134 129 129 124 121
306 313 306 310 321 317 323 318 315 320 327 330 335 338 336 340 339 340 346 343 333 344 344 333 341 347 350 357 346 341 346 347 125 131 137 139 141 139 136 133 130 124 122 126
298 291 298 314 307 295 312 313 312 311 318 325 340 345 345 335 334 348 343 343 343 355 348 341 359 4 9 4 358 357 355 8 68 107 125 133 136 137 134 132 126 126 129 131
295 301 283 284 309 353 341 312 315 313 310 310 321 342 345 344 342 353 338 341 349 4 359 359 13 15 18 7 5 6 6 4 22 76 103 116 121 127 128 127 125 124 127 125
291 279 266 347 335 308 305 310 325 334 328 339 340 350 342 347 345 338 341 345 355 5 359 2 15 17 13 15 12 11 16 15 21 32 61 88 101 108 111 115 117 119 119 119
305 294 296 278 250 290 301 323 339 330 345 345 351 351 347 351 350 357 350 357 0 3 2 3 7 15 15 17 20 20 21 28 29 30 43 48 58 65 73 80 83 89 100 105
305 340 337 334 329 343 325 348 353 334 332 335 349 335 351 353 356 1 360 359 3 3 3 5 7 13 17 22 22 25 29 35 43 38 41 45 48 52 57 62 64 66 69 77